H1 CPF 1 NER 2021 2 27 9 5581 glonass129 H2 1106402 9129 37868 2021 2 27 0 0 0 2021 3 2 23 45 0 900 1 1 0 0 0 H9 10 0 59272 0.00000 0 18815947.829 -12309376.870 -12051961.108 10 0 59272 900.00000 0 20004942.091 -12888798.968 -9207908.872 10 0 59272 1800.00000 0 20819279.159 -13404882.508 -6185155.173 10 0 59272 2700.00000 0 21258953.576 -13800732.699 -3042435.242 10 0 59272 3600.00000 0 21336933.180 -14022129.884 159263.903 10 0 59272 4500.00000 0 21078431.557 -14019997.935 3357885.247 10 0 59272 5400.00000 0 20519686.738 -13752664.975 6491498.821 10 0 59272 6300.00000 0 19706299.133 -13187821.882 9499491.187 10 0 59272 7200.00000 0 18691199.792 -12304097.120 12323724.965 10 0 59272 8100.00000 0 17532334.878 -11092182.611 14909647.047 10 0 59272 9000.00000 0 16290163.350 -9555464.047 17207325.501 10 0 59272 9900.00000 0 15025072.051 -7710129.565 19172396.610 10 0 59272 10800.00000 0 13794815.176 -5584751.936 20766905.530 10 0 59272 11700.00000 0 12652083.709 -3219360.802 21960026.000 10 0 59272 12600.00000 0 11642304.778 -664042.138 22728646.640 10 0 59272 13500.00000 0 10801761.286 2022878.941 23057813.704 10 0 59272 14400.00000 0 10156109.127 4776999.139 22941022.387 10 0 59272 15300.00000 0 9719353.152 7530254.722 22380351.140 10 0 59272 16200.00000 0 9493324.516 10213498.659 21386435.912 10 0 59272 17100.00000 0 9467681.703 12759132.890 19978283.680 10 0 59272 18000.00000 0 9620436.246 15103688.606 18182927.256 10 0 59272 18900.00000 0 9918982.585 17190248.953 16034926.068 10 0 59272 19800.00000 0 10321590.530 18970614.277 13575720.329 10 0 59272 20700.00000 0 10779299.329 20407119.707 10852848.971 10 0 59272 21600.00000 0 11238135.001 21474028.669 7919044.532 10 0 59272 22500.00000 0 11641558.359 22158442.894 4831220.942 10 0 59272 23400.00000 0 11933040.630 22460689.267 1649372.967 10 0 59272 24300.00000 0 12058657.219 22394165.705 -1564591.706 10 0 59272 25200.00000 0 11969588.594 21984651.132 -4748064.750 10 0 59272 26100.00000 0 11624420.419 21269107.543 -7838969.205 10 0 59272 27000.00000 0 10991143.043 20294024.153 -10776985.864 10 0 59272 27900.00000 0 10048762.891 19113373.609 -13504748.367 10 0 59272 28800.00000 0 8788454.797 17786267.231 -15968981.679 10 0 59272 29700.00000 0 7214203.923 16374409.525 -18121559.884 10 0 59272 30600.00000 0 5342907.930 14939460.931 -19920460.977 10 0 59272 31500.00000 0 3203933.479 13540421.817 -21330598.569 10 0 59272 32400.00000 0 838144.630 12231149.602 -22324513.407 10 0 59272 33300.00000 0 -1703556.514 11058114.887 -22882910.734 10 0 59272 34200.00000 0 -4362115.589 10058491.898 -22995032.995 10 0 59272 35100.00000 0 -7072558.798 9258663.711 -22658861.055 10 0 59272 36000.00000 0 -9766478.770 8673204.622 -21881140.808 10 0 59272 36900.00000 0 -12374668.868 8304381.277 -20677235.649 10 0 59272 37800.00000 0 -14829795.494 8142191.788 -19070808.967 10 0 59272 38700.00000 0 -17068996.762 8164938.982 -17093344.072 10 0 59272 39600.00000 0 -19036299.289 8340311.291 -14783512.317 10 0 59272 40500.00000 0 -20684753.086 8626923.265 -12186402.949 10 0 59272 41400.00000 0 -21978196.795 8976248.519 -9352630.851 10 0 59272 42300.00000 0 -22892581.241 9334861.654 -6337340.653 10 0 59272 43200.00000 0 -23416798.272 9646893.066 -3199127.384 10 0 59272 44100.00000 0 -23552982.630 9856592.077 1104.744 10 0 59272 45000.00000 0 -23316276.723 9910889.847 3201322.843 10 0 59272 45900.00000 0 -22734070.549 9761854.016 6339562.243 10 0 59272 46800.00000 0 -21844750.654 9368932.131 9355116.927 10 0 59272 47700.00000 0 -20696012.087 8700890.121 12189701.065 10 0 59272 48600.00000 0 -19342804.977 7737365.179 14788560.237 10 0 59272 49500.00000 0 -17845001.922 6469968.532 17101512.279 10 0 59272 50400.00000 0 -16264883.358 4902892.372 19083899.112 10 0 59272 51300.00000 0 -14664544.976 3052995.512 20697432.941 10 0 59272 52200.00000 0 -13103333.957 949363.547 21910922.184 10 0 59272 53100.00000 0 -11635419.296 -1367639.301 22700864.534 10 0 59272 54000.00000 0 -10307595.731 -3847789.094 23051896.933 10 0 59272 54900.00000 0 -9157411.203 -6432835.255 22957094.452 10 0 59272 55800.00000 0 -8211694.686 -9058674.341 22418112.391 10 0 59272 56700.00000 0 -7485545.040 -11657777.202 21445168.413 10 0 59272 57600.00000 0 -6981822.922 -14161771.560 20056863.948 10 0 59272 58500.00000 0 -6691167.481 -16504075.147 18279846.724 10 0 59272 59400.00000 0 -6592538.069 -18622471.857 16148318.984 10 0 59272 60300.00000 0 -6654259.593 -20461524.929 13703398.672 10 0 59272 61200.00000 0 -6835529.073 -21974726.894 10992343.831 10 0 59272 62100.00000 0 -7088321.411 -23126296.183 8067653.240 10 0 59272 63000.00000 0 -7359615.031 -23892544.216 4986059.114 10 0 59272 63900.00000 0 -7593843.973 -24262754.087 1807430.488 10 0 59272 64800.00000 0 -7735472.526 -24239532.208 -1406391.870 10 0 59272 65700.00000 0 -7731582.518 -23838616.351 -4592806.056 10 0 59272 66600.00000 0 -7534362.027 -23088146.619 -7689680.648 10 0 59272 67500.00000 0 -7103387.841 -22027429.031 -10636581.942 10 0 59272 68400.00000 0 -6407602.304 -20705243.391 -13375971.174 10 0 59272 69300.00000 0 -5426898.091 -19177766.990 -15854346.359 10 0 59272 70200.00000 0 -4153241.098 -17506202.486 -18023304.609 10 0 59272 71100.00000 0 -2591281.552 -15754211.179 -19840502.493 10 0 59272 72000.00000 0 -758425.597 -13985261.368 -21270494.267 10 0 59272 72900.00000 0 1315637.052 -12260004.964 -22285430.685 10 0 59272 73800.00000 0 3589930.384 -10633794.030 -22865604.285 10 0 59272 74700.00000 0 6013672.543 -9154442.646 -22999830.443 10 0 59272 75600.00000 0 8528177.224 -7860328.430 -22685657.219 10 0 59272 76500.00000 0 11069095.811 -6778913.119 -21929400.617 10 0 59272 77400.00000 0 13568905.723 -5925743.323 -20746005.608 10 0 59272 78300.00000 0 15959540.318 -5303971.695 -19158736.840 10 0 59272 79200.00000 0 18175050.024 -4904416.422 -17198706.324 10 0 59272 80100.00000 0 20154183.366 -4706153.956 -14904248.677 10 0 59272 81000.00000 0 21842780.433 -4677617.287 -12320157.351 10 0 59272 81900.00000 0 23195879.630 -4778150.802 -9496797.906 10 0 59272 82800.00000 0 24179450.911 -4959953.789 -6489116.695 10 0 59272 83700.00000 0 24771684.805 -5170328.579 -3355565.089 10 0 59272 84600.00000 0 24963785.391 -5354136.950 -156960.771 10 0 59272 85500.00000 0 24760236.236 -5456360.271 3044691.360 10 0 59273 0.00000 0 24178530.445 -5424655.040 6187395.718 10 0 59273 900.00000 0 23248377.934 -5211795.876 9210357.531 10 0 59273 1800.00000 0 22010425.271 -4777904.677 12055145.893 10 0 59273 2700.00000 0 20514541.916 -4092371.030 14666808.140 10 0 59273 3600.00000 0 18817745.729 -3135385.944 16994914.539 10 0 59273 4500.00000 0 16981853.753 -1899023.833 18994514.876 10 0 59273 5400.00000 0 15070955.662 -387828.279 20626990.200 10 0 59273 6300.00000 0 13148813.745 1381123.392 21860784.979 10 0 59273 7200.00000 0 11276296.086 3378680.196 22672006.942 10 0 59273 8100.00000 0 9508947.820 5564584.633 23044884.292 10 0 59273 9000.00000 0 7894799.669 7888908.746 22972072.153 10 0 59273 9900.00000 0 6472503.327 10293901.898 22454802.468 10 0 59273 10800.00000 0 5269870.105 12716176.314 21502874.039 10 0 59273 11700.00000 0 4302873.005 15089142.464 20134481.810 10 0 59273 12600.00000 0 3575153.813 17345595.597 18375887.147 10 0 59273 13500.00000 0 3078056.234 19420348.017 16260933.519 10 0 59273 14400.00000 0 2791184.613 21252799.011 13830414.723 10 0 59273 15300.00000 0 2683465.996 22789335.885 11131305.773 10 0 59273 16200.00000 0 2714672.160 23985465.725 8215869.302 10 0 59273 17100.00000 0 2837338.552 24807587.847 5140653.198 10 0 59273 18000.00000 0 2998999.868 25234331.051 1965397.956 10 0 59273 18900.00000 0 3144647.873 25257397.720 -1248125.509 10 0 59273 19800.00000 0 3219306.848 24881877.168 -4437324.751 10 0 59273 20700.00000 0 3170616.331 24126013.153 -7540016.893 10 0 59273 21600.00000 0 2951309.752 23020433.756 -10495656.654 10 0 59273 22500.00000 0 2521481.521 21606875.058 -13246535.626 10 0 59273 23400.00000 0 1850543.866 19936452.002 -15738927.415 10 0 59273 24300.00000 0 918787.823 18067549.562 -17924154.445 10 0 59273 25200.00000 0 -281520.196 16063423.810 -19759553.887 10 0 59273 26100.00000 0 -1745554.734 13989615.089 -21209322.391 10 0 59273 27000.00000 0 -3455886.781 11911283.457 -22245222.186 10 0 59273 27900.00000 0 -5382981.440 9890579.658 -22847134.261 10 0 59273 28800.00000 0 -7486217.214 7984163.079 -23003447.752 10 0 59273 29700.00000 0 -9715384.130 6240971.367 -22711278.342 10 0 59273 30600.00000 0 -12012597.390 4700335.103 -21976512.142 10 0 59273 31500.00000 0 -14314545.632 3390515.860 -20813675.223 10 0 59273 32400.00000 0 -16554978.905 2327727.389 -19245632.547 10 0 59273 33300.00000 0 -18667331.568 1515678.869 -17303123.427 10 0 59273 34200.00000 0 -20587369.904 945656.812 -15024143.962 10 0 59273 35100.00000 0 -22255753.624 597139.263 -12453189.722 10 0 59273 36000.00000 0 -23620404.500 438913.463 -9640374.634 10 0 59273 36900.00000 0 -24638583.775 430647.109 -6640444.316 10 0 59273 37800.00000 0 -25278592.734 524844.500 -3511703.942 10 0 59273 38700.00000 0 -25521026.873 669103.024 -314882.074 10 0 59273 39600.00000 0 -25359533.025 808573.439 2888047.004 10 0 59273 40500.00000 0 -24801039.741 888519.301 6035059.570 10 0 59273 41400.00000 0 -23865453.154 856867.406 9065274.503 10 0 59273 42300.00000 0 -22584832.661 666642.057 11920118.556 10 0 59273 43200.00000 0 -21002082.055 278181.305 14544443.396 10 0 59273 44100.00000 0 -19169211.365 -338957.245 16887574.148 10 0 59273 45000.00000 0 -17145241.960 -1204480.254 18904270.693 10 0 59273 45900.00000 0 -14993841.524 -2326295.152 20555584.912 10 0 59273 46800.00000 0 -12780786.137 -3699943.723 21809598.988 10 0 59273 47700.00000 0 -10571353.352 -5308556.888 22642032.032 10 0 59273 48600.00000 0 -8427752.647 -7123333.635 23036704.507 10 0 59273 49500.00000 0 -6406697.878 -9104525.928 22985852.267 10 0 59273 50400.00000 0 -4557220.749 -11202890.755 22490284.275 10 0 59273 51300.00000 0 -2918814.496 -13361551.603 21559380.567 10 0 59273 52200.00000 0 -1519983.860 -15518194.699 20210929.440 10 0 59273 53100.00000 0 -377261.219 -17607511.285 18470805.479 10 0 59273 54000.00000 0 505270.111 -19563786.612 16372492.700 10 0 59273 54900.00000 0 1135924.950 -21323529.503 13956459.805 10 0 59273 55800.00000 0 1534838.893 -22828033.727 11269397.542 10 0 59273 56700.00000 0 1732887.672 -24025764.333 8363330.882 10 0 59273 57600.00000 0 1770147.637 -24874468.393 5294621.597 10 0 59273 58500.00000 0 1693961.424 -25342920.256 2122879.587 10 0 59273 59400.00000 0 1556690.168 -25412226.109 -1090196.394 10 0 59273 60300.00000 0 1413247.603 -25076630.769 -4282025.890 10 0 59273 61200.00000 0 1318521.340 -24343790.469 -7390377.336 10 0 59273 62100.00000 0 1324792.201 -23234498.112 -10354596.840 10 0 59273 63000.00000 0 1479263.060 -21781870.975 -13116809.472 10 0 59273 63900.00000 0 1821804.399 -20030034.118 -15623067.642 10 0 59273 64800.00000 0 2383014.682 -18032354.578 -17824422.299 10 0 59273 65700.00000 0 3182680.194 -15849300.986 -19677894.310 10 0 59273 66600.00000 0 4228701.711 -13546019.444 -21147325.583 10 0 59273 67500.00000 0 5516535.105 -11189728.637 -22204092.351 10 0 59273 68400.00000 0 7029170.791 -8847044.708 -22827666.180 10 0 59273 69300.00000 0 8737653.447 -6581349.226 -23006011.615 10 0 59273 70200.00000 0 10602120.304 -4450311.235 -22735813.132 10 0 59273 71100.00000 0 12573314.025 -2503667.267 -22022527.646 10 0 59273 72000.00000 0 14594505.886 -781351.885 -20880262.549 10 0 59273 72900.00000 0 16603747.765 687944.253 -19331482.870 10 0 59273 73800.00000 0 18536357.648 1887730.302 -17406554.520 10 0 59273 74700.00000 0 20327533.676 2814147.442 -15143133.891 10 0 59273 75600.00000 0 21914986.802 3475862.216 -12585416.994 10 0 59273 76500.00000 0 23241481.663 3893428.575 -9783263.951 10 0 59273 77400.00000 0 24257179.547 4098148.509 -6791217.023 10 0 59273 78300.00000 0 24921686.100 4130482.152 -3667432.155 10 0 59273 79200.00000 0 25205719.189 4038076.788 -472545.443 10 0 59273 80100.00000 0 25092328.529 3873499.756 2731502.978 10 0 59273 81000.00000 0 24577617.684 3691772.111 5882664.782 10 0 59273 81900.00000 0 23670939.866 3547807.682 8919976.156 10 0 59273 82800.00000 0 22394560.876 3493865.448 11784724.840 10 0 59273 83700.00000 0 20782804.410 3577122.053 14421569.951 10 0 59273 84600.00000 0 18880716.067 3837465.825 16779594.312 10 0 59273 85500.00000 0 16742301.917 4305604.030 18813270.420 10 0 59274 0.00000 0 14428414.443 5001561.930 20483323.133 10 0 59274 900.00000 0 12004372.507 5933636.453 21757474.256 10 0 59274 1800.00000 0 9537412.909 7097846.949 22611055.744 10 0 59274 2700.00000 0 7094077.160 8477908.605 23027481.447 10 0 59274 3600.00000 0 4737639.508 10045728.800 22998568.701 10 0 59274 4500.00000 0 2525681.162 11762408.841 22524703.828 10 0 59274 5400.00000 0 507909.203 13579711.105 21614848.019 10 0 59274 6300.00000 0 -1275690.708 15441933.265 20286382.413 10 0 59274 7200.00000 0 -2796291.934 17288114.090 18564793.886 10 0 59274 8100.00000 0 -4037195.351 19054481.333 16483205.672 10 0 59274 9000.00000 0 -4994288.137 20677041.590 14081759.703 10 0 59274 9900.00000 0 -5675972.975 22094205.185 11406860.469 10 0 59274 10800.00000 0 -6102569.737 23249336.816 8510293.016 10 0 59274 11700.00000 0 -6305213.724 24093124.757 5448230.497 10 0 59274 12600.00000 0 -6324295.915 24585668.009 2280149.510 10 0 59274 13500.00000 0 -6207510.469 24698191.891 -932326.236 10 0 59274 14400.00000 0 -6007591.932 24414317.623 -4126631.271 10 0 59274 15300.00000 0 -5779838.447 23730829.937 -7240488.401 10 0 59274 16200.00000 0 -5579527.046 22657908.003 -10213138.160 10 0 59274 17100.00000 0 -5459332.351 21218807.806 -12986542.040 10 0 59274 18000.00000 0 -5466860.217 19449007.836 -15506534.048 10 0 59274 18900.00000 0 -5642403.264 17394853.108 -17723896.239 10 0 59274 19800.00000 0 -6017015.789 15111754.263 -19595335.520 10 0 59274 20700.00000 0 -6610991.710 12662017.843 -21084341.130 10 0 59274 21600.00000 0 -7432811.751 10112399.583 -22161905.097 10 0 59274 22500.00000 0 -8478605.692 7531484.349 -22807091.020 10 0 59274 23400.00000 0 -9732153.046 4987003.627 -23007439.967 10 0 59274 24300.00000 0 -11165422.382 2543203.653 -22759205.907 10 0 59274 25200.00000 0 -12739626.229 258374.676 -22067416.794 10 0 59274 26100.00000 0 -14406746.467 -1817355.421 -20945761.093 10 0 59274 27000.00000 0 -16111465.091 -3643871.762 -19416303.154 10 0 59274 27900.00000 0 -17793418.224 -5192491.537 -17509034.250 10 0 59274 28800.00000 0 -19389677.661 -6446894.204 -15261269.402 10 0 59274 29700.00000 0 -20837354.994 -7403526.613 -12716903.040 10 0 59274 30600.00000 0 -22076218.579 -8071469.146 -9925539.179 10 0 59274 31500.00000 0 -23051213.371 -8471771.613 -6941514.216 10 0 59274 32400.00000 0 -23714778.296 -8636290.005 -3822832.219 10 0 59274 33300.00000 0 -24028864.690 -8606075.827 -630034.084 10 0 59274 34200.00000 0 -23966572.255 -8429388.158 2574977.008 10 0 59274 35100.00000 0 -23513335.304 -8159413.946 5730130.978 10 0 59274 36000.00000 0 -22667611.023 -7851793.634 8774384.185 10 0 59274 36900.00000 0 -21441042.311 -7562056.734 11648888.186 10 0 59274 37800.00000 0 -19858089.484 -7343075.111 14298112.298 10 0 59274 38700.00000 0 -17955146.882 -7242640.440 16670899.630 10 0 59274 39600.00000 0 -15779181.424 -7301266.664 18721437.659 10 0 59274 40500.00000 0 -13385949.343 -7550308.660 20410126.336 10 0 59274 41400.00000 0 -10837864.161 -8010475.110 21704328.694 10 0 59274 42300.00000 0 -8201602.925 -8690797.319 22578990.919 10 0 59274 43200.00000 0 -5545547.958 -9588097.083 23017121.222 10 0 59274 44100.00000 0 -2937167.871 -10686976.532 23010119.015 10 0 59274 45000.00000 0 -440444.119 -11960331.593 22557948.260 10 0 59274 45900.00000 0 1886552.437 -13370369.533 21669151.281 10 0 59274 46800.00000 0 3993836.300 -14870090.435 20360701.786 10 0 59274 47700.00000 0 5841344.395 -16405173.249 18657698.418 10 0 59274 48600.00000 0 7400359.784 -17916190.147 16592902.868 10 0 59274 49500.00000 0 8654462.891 -19341058.811 14206129.266 10 0 59274 50400.00000 0 9599970.038 -20617631.601 11543494.533 10 0 59274 51300.00000 0 10245840.160 -21686314.058 8656542.179 10 0 59274 52200.00000 0 10613052.617 -22492602.885 5601254.829 10 0 59274 53100.00000 0 10733481.168 -22989435.971 2436973.594 10 0 59274 54000.00000 0 10648310.835 -23139254.007 -774755.275 10 0 59274 54900.00000 0 10406064.071 -22915684.708 -3971383.922 10 0 59274 55800.00000 0 10060319.869 -22304776.084 -7090592.290 10 0 59274 56700.00000 0 9667223.142 -21305724.140 -10071518.226 10 0 59274 57600.00000 0 9282891.239 -19931061.802 -12855962.601 10 0 59274 58500.00000 0 8960829.343 -18206299.048 -15389543.985 10 0 59274 59400.00000 0 8749466.401 -16169027.885 -17622778.456 10 0 59274 60300.00000 0 8689918.241 -13867528.941 -19512061.741 10 0 59274 61200.00000 0 8814074.674 -11358938.074 -21020532.978 10 0 59274 62100.00000 0 9143093.330 -8707050.308 -22118802.244 10 0 59274 63000.00000 0 9686365.236 -5979853.854 -22785527.068 10 0 59274 63900.00000 0 10440996.590 -3246898.502 -23007826.501 10 0 59274 64800.00000 0 11391828.792 -576609.288 -22781525.035 10 0 59274 65700.00000 0 12511995.560 1966341.680 -22111222.262 10 0 59274 66600.00000 0 13763992.837 4323495.215 -21010187.887 10 0 59274 67500.00000 0 15101215.338 6444794.597 -19500085.328 10 0 59274 68400.00000 0 16469893.792 8290414.312 -17610530.564 10 0 59274 69300.00000 0 17811350.097 9832153.270 -15378496.174 10 0 59274 70200.00000 0 19064474.382 11054336.606 -12847573.518 10 0 59274 71100.00000 0 20168318.997 11954191.184 -10067108.603 10 0 59274 72000.00000 0 21064699.832 12541682.078 -7091229.657 10 0 59274 72900.00000 0 21700695.587 12838820.139 -3977786.212 10 0 59274 73800.00000 0 22030940.336 12878472.769 -787221.013 10 0 59274 74700.00000 0 22019613.811 12702730.507 2418602.858 10 0 59274 75600.00000 0 21642046.923 12360900.341 5577596.799 10 0 59274 76500.00000 0 20885876.361 11907211.667 8628640.576 10 0 59274 77400.00000 0 19751701.074 11398332.211 11512752.692 10 0 59274 78300.00000 0 18253214.212 10890798.538 14174215.645 10 0 59274 79200.00000 0 16416805.622 10438468.712 16561635.608 10 0 59274 80100.00000 0 14280651.764 10090103.180 18628917.581 10 0 59274 81000.00000 0 11893330.534 9887174.263 20336138.882 10 0 59274 81900.00000 0 9312017.634 9861994.909 21650305.848 10 0 59274 82800.00000 0 6600337.884 10036244.110 22545980.605 10 0 59274 83700.00000 0 3825958.603 10419950.116 23005767.112 10 0 59274 84600.00000 0 1058022.362 11010973.968 23020647.881 10 0 59274 85500.00000 0 -1635476.866 11795015.546 22590165.112 10 0 59275 0.00000 0 -4190267.955 12746143.147 21722442.442 10 0 59275 900.00000 0 -6548222.662 13827826.503 20434045.750 10 0 59275 1800.00000 0 -8659522.902 14994431.606 18749684.674 10 0 59275 2700.00000 0 -10484485.539 16193118.142 16701758.089 10 0 59275 3600.00000 0 -11994970.401 17366061.425 14329750.661 10 0 59275 4500.00000 0 -13175311.492 18452908.023 11679489.748 10 0 59275 5400.00000 0 -14022732.381 19393363.075 8802275.063 10 0 59275 6300.00000 0 -14547227.205 20129801.069 5753896.249 10 0 59275 7200.00000 0 -14770911.120 20609789.776 2593556.312 10 0 59275 8100.00000 0 -14726866.555 20788419.809 -617278.700 10 0 59275 9000.00000 0 -14457533.218 20630339.611 -3816081.373 10 0 59275 9900.00000 0 -14012709.607 20111407.537 -6940491.685 10 0 59275 10800.00000 0 -13447250.957 19219888.572 -9929547.695 10 0 59275 11700.00000 0 -12818561.992 17957142.421 -12724892.511 10 0 59275 12600.00000 0 -12183992.150 16337771.470 -15271932.009 10 0 59275 13500.00000 0 -11598245.467 14389220.374 -17520918.869 10 0 59275 14400.00000 0 -11110916.832 12150842.651 -19427939.989 10 0 59275 15300.00000 0 -10764260.894 9672472.828 -20955786.498 10 0 59275 16200.00000 0 -10591289.781 7012563.922 -22074688.322 10 0 59275 17100.00000 0 -10614281.354 4235968.675 -22762898.394 10 0 59275 18000.00000 0 -10843761.824 1411458.232 -23007114.881 10 0 59275 18900.00000 0 -11278005.852 -1390917.173 -22802733.536 10 0 59275 19800.00000 0 -11903074.852 -4102514.571 -22153925.903 10 0 59275 20700.00000 0 -12693390.944 -6658718.942 -21073542.792 10 0 59275 21600.00000 0 -13612821.109 -9001388.986 -19582846.102 10 0 59275 22500.00000 0 -14616224.331 -11081026.528 -17711075.480 10 0 59275 23400.00000 0 -15651394.939 -12858580.210 -15494859.622 10 0 59275 24300.00000 0 -16661318.814 -14306810.053 -12977485.032 10 0 59275 25200.00000 0 -17586646.178 -15411158.314 -10208037.642 10 0 59275 26100.00000 0 -18368275.899 -16170092.949 -7240435.237 10 0 59275 27000.00000 0 -18949942.035 -16594912.413 -4132370.390 10 0 59275 27900.00000 0 -19280693.702 -16709023.031 -944185.150 10 0 59275 28800.00000 0 -19317164.303 -16546722.091 2262300.140 10 0 59275 29700.00000 0 -19025535.470 -16151540.222 5424981.078 10 0 59275 30600.00000 0 -18383114.151 -15574214.591 8482663.615 10 0 59275 31500.00000 0 -17379457.750 -14870379.238 11376236.020 10 0 59275 32400.00000 0 -16017001.101 -14098070.124 14049796.748 10 0 59275 33300.00000 0 -14311159.708 -13315149.436 16451717.733 10 0 59275 34200.00000 0 -12289905.246 -12576756.531 18535624.010 10 0 59275 35100.00000 0 -9992830.704 -11932891.204 20261272.537 10 0 59275 36000.00000 0 -7469743.205 -11426229.237 21595314.910 10 0 59275 36900.00000 0 -4778841.536 -11090260.302 22511930.788 10 0 59275 37800.00000 0 -1984552.030 -10947825.100 22993321.099 10 0 59275 38700.00000 0 844889.943 -11010112.251 23030052.294 10 0 59275 39600.00000 0 3640015.142 -11276156.840 22621245.286 10 0 59275 40500.00000 0 6332748.290 -11732862.194 21774605.104 10 0 59275 41400.00000 0 8858982.048 -12355545.195 20506289.747 10 0 59275 42300.00000 0 11160992.264 -13108984.034 18840619.306 10 0 59275 43200.00000 0 13189595.643 -13948926.575 16809629.087 10 0 59275 44100.00000 0 14905960.823 -14823998.211 14452473.206 10 0 59275 45000.00000 0 16282997.353 -15677931.029 11814688.038 10 0 59275 45900.00000 0 17306264.089 -16452022.076 8947327.730 10 0 59275 46800.00000 0 17974357.983 -17087718.067 5905986.803 10 0 59275 47700.00000 0 18298765.683 -17529217.625 2749727.716 10 0 59275 48600.00000 0 18303182.974 -17725980.468 -460066.410 10 0 59275 49500.00000 0 18022329.710 -17635035.961 -3660891.507 10 0 59275 50400.00000 0 17500309.577 -17222991.291 -6790350.605 10 0 59275 51300.00000 0 16788583.944 -16467651.705 -9787385.009 10 0 59275 52200.00000 0 15943645.985 -15359181.501 -12593483.055 10 0 59275 53100.00000 0 15024494.557 -13900754.018 -15153840.817 10 0 59275 54000.00000 0 14090016.270 -12108660.754 -17418450.306 10 0 59275 54900.00000 0 13196388.315 -10011873.067 -19343092.131 10 0 59275 55800.00000 0 12394613.786 -7651073.667 -20890211.691 10 0 59275 56700.00000 0 11728295.392 -5077197.913 -22029660.746 10 0 59275 57600.00000 0 11231742.940 -2349546.025 -22739289.256 10 0 59275 58500.00000 0 10928495.348 466454.260 -23005375.740 10 0 59275 59400.00000 0 10830319.759 3301740.310 -22822888.049 10 0 59275 60300.00000 0 10936729.560 6086257.678 -22195570.101 10 0 59275 61200.00000 0 11235040.656 8751642.562 -21135853.838 10 0 59275 62100.00000 0 11700962.150 11233831.477 -19664599.277 10 0 59275 63000.00000 0 12299694.782 13475489.497 -17810668.995 10 0 59275 63900.00000 0 12987488.877 15428156.414 -15610346.698 10 0 59275 64800.00000 0 13713594.246 17054022.664 -13106612.549 10 0 59275 65700.00000 0 14422518.134 18327262.784 -10348290.560 10 0 59275 66600.00000 0 15056494.648 19234873.050 -7389085.872 10 0 59275 67500.00000 0 15558060.598 19776981.039 -4286531.571 10 0 59275 68400.00000 0 15872628.738 19966617.069 -1100866.219 10 0 59275 69300.00000 0 15950949.971 19828959.943 2106135.561 10 0 59275 70200.00000 0 15751361.292 19400091.205 5272356.649 10 0 59275 71100.00000 0 15241725.595 18725312.332 8336532.272 10 0 59275 72000.00000 0 14400982.775 17857096.940 11239423.490 10 0 59275 72900.00000 0 13220247.900 16852764.787 13924947.624 10 0 59275 73800.00000 0 11703411.138 15771975.214 16341245.093 10 0 59275 74700.00000 0 9867214.728 14674144.572 18441663.509 10 0 59275 75600.00000 0 7740803.608 13615894.730 20185641.764 10 0 59275 76500.00000 0 5364767.687 12648638.035 21539478.765 10 0 59275 77400.00000 0 2789714.279 11816398.201 22476973.458 10 0 59275 78300.00000 0 74428.107 11153956.747 22979925.147 10 0 59275 79200.00000 0 -2716307.223 10685401.259 23038485.242 10 0 59275 80100.00000 0 -5514138.524 10423135.510 22651353.938 10 0 59275 81000.00000 0 -8249725.215 10367392.676 21825817.765 10 0 59275 81900.00000 0 -10855369.996 10506272.598 20577626.336 10 0 59275 82800.00000 0 -13267591.045 10816302.652 18930709.259 10 0 59275 83700.00000 0 -15429530.680 11263500.328 16916736.792 10 0 59275 84600.00000 0 -17293101.383 11804894.788 14574530.589 10 0 59275 85500.00000 0 -18820779.988 12390445.317 11949333.770 99